TimeMDT,TemperatureF,Dew PointF,Humidity,Sea Level PressureIn,VisibilityMPH,Wind Direction,Wind SpeedMPH,Gust SpeedMPH,PrecipitationIn,Events,Conditions,WindDirDegrees,DateUTC
12:12 AM,28.4,26.6,93,30.29,-9999.0,West,39.1,-,N/A,,Overcast,260,2013-05-07 06:12:00
12:32 AM,28.4,26.6,93,30.29,-9999.0,North,-9999.0,-,N/A,,Overcast,0,2013-05-07 06:32:00
12:52 AM,28.4,26.6,93,30.28,-9999.0,North,-9999.0,-,N/A,,Overcast,0,2013-05-07 06:52:00
1:12 AM,28.4,26.6,93,30.28,-9999.0,North,-9999.0,-,N/A,,Overcast,0,2013-05-07 07:12:00
1:32 AM,28.4,26.6,93,30.27,-9999.0,North,-9999.0,-,N/A,,Overcast,0,2013-05-07 07:32:00
1:52 AM,28.4,26.6,93,30.27,-9999.0,West,26.5,-,N/A,,Overcast,270,2013-05-07 07:52:00
2:12 AM,28.4,26.6,93,30.27,-9999.0,North,-9999.0,-,N/A,,Overcast,0,2013-05-07 08:12:00
2:32 AM,28.4,26.6,93,30.27,-9999.0,North,-9999.0,-,N/A,,Overcast,0,2013-05-07 08:32:00
2:52 AM,28.4,26.6,93,30.27,-9999.0,North,-9999.0,-,N/A,,Overcast,0,2013-05-07 08:52:00
3:12 AM,28.4,26.6,93,30.26,-9999.0,North,-9999.0,-,N/A,,Overcast,0,2013-05-07 09:12:00
3:32 AM,28.4,26.6,93,30.25,-9999.0,North,-9999.0,-,N/A,,Overcast,0,2013-05-07 09:32:00
3:52 AM,26.6,26.6,100,30.24,-9999.0,North,-9999.0,-,N/A,,Overcast,0,2013-05-07 09:52:00
4:12 AM,26.6,26.6,100,30.25,-9999.0,North,-9999.0,-,N/A,,Overcast,0,2013-05-07 10:12:00
4:32 AM,26.6,26.6,100,30.25,-9999.0,North,-9999.0,-,N/A,,Overcast,0,2013-05-07 10:32:00
4:52 AM,26.6,26.6,100,30.25,-9999.0,North,-9999.0,-,N/A,,Overcast,0,2013-05-07 10:52:00
5:12 AM,26.6,26.6,100,30.26,-9999.0,North,-9999.0,-,N/A,,Overcast,0,2013-05-07 11:12:00
5:32 AM,26.6,26.6,100,30.26,-9999.0,North,-9999.0,-,N/A,,Overcast,0,2013-05-07 11:32:00
5:52 AM,26.6,24.8,93,30.27,-9999.0,North,-9999.0,-,N/A,,Overcast,0,2013-05-07 11:52:00
6:12 AM,26.6,24.8,93,30.27,-9999.0,North,-9999.0,-,N/A,,Overcast,0,2013-05-07 12:12:00
6:32 AM,26.6,24.8,93,30.27,-9999.0,North,-9999.0,-,N/A,,Overcast,0,2013-05-07 12:32:00
6:52 AM,26.6,26.6,100,30.28,-9999.0,North,-9999.0,-,N/A,,Overcast,0,2013-05-07 12:52:00
7:12 AM,26.6,26.6,100,30.28,-9999.0,North,-9999.0,-,N/A,,Overcast,0,2013-05-07 13:12:00
7:32 AM,26.6,26.6,100,30.29,-9999.0,North,-9999.0,-,N/A,,Overcast,0,2013-05-07 13:32:00
7:52 AM,26.6,26.6,100,30.30,-9999.0,North,-9999.0,-,N/A,,Overcast,0,2013-05-07 13:52:00
8:12 AM,26.6,26.6,100,30.30,-9999.0,North,-9999.0,-,N/A,,Overcast,0,2013-05-07 14:12:00
8:32 AM,28.4,26.6,93,30.30,-9999.0,North,-9999.0,-,N/A,,Overcast,0,2013-05-07 14:32:00
8:52 AM,28.4,26.6,93,30.30,-9999.0,North,-9999.0,-,N/A,,Overcast,0,2013-05-07 14:52:00
9:12 AM,28.4,26.6,93,30.30,-9999.0,North,-9999.0,-,N/A,,Overcast,0,2013-05-07 15:12:00
9:32 AM,28.4,26.6,93,30.32,-9999.0,North,-9999.0,-,N/A,,Overcast,0,2013-05-07 15:32:00
9:52 AM,28.4,26.6,93,30.31,-9999.0,North,-9999.0,-,N/A,,Overcast,0,2013-05-07 15:52:00
10:12 AM,28.4,28.4,100,30.32,-9999.0,West,19.6,-,N/A,,Overcast,270,2013-05-07 16:12:00
10:32 AM,28.4,28.4,100,30.33,-9999.0,West,15.0,25.3,N/A,,Overcast,270,2013-05-07 16:32:00
10:52 AM,28.4,28.4,100,30.33,-9999.0,North,-9999.0,-,N/A,,Unknown,0,2013-05-07 16:52:00
11:12 AM,30.2,28.4,93,30.33,-9999.0,West,19.6,27.6,N/A,,Mostly Cloudy,260,2013-05-07 17:12:00
11:32 AM,30.2,28.4,93,30.34,-9999.0,West,21.9,27.6,N/A,,Overcast,260,2013-05-07 17:32:00
12:12 PM,30.2,30.2,100,30.34,-9999.0,West,16.1,23.0,N/A,,Unknown,260,2013-05-07 18:12:00
12:32 PM,32.0,30.2,93,30.33,-9999.0,West,19.6,24.2,N/A,,Mostly Cloudy,260,2013-05-07 18:32:00
12:52 PM,32.0,30.2,93,30.33,-9999.0,West,18.4,23.0,N/A,,Unknown,270,2013-05-07 18:52:00
1:12 PM,30.2,28.4,93,30.33,-9999.0,West,13.8,-,N/A,,Unknown,270,2013-05-07 19:12:00
1:32 PM,32.0,28.4,87,30.33,-9999.0,WSW,10.4,-,N/A,,Mostly Cloudy,240,2013-05-07 19:32:00
1:52 PM,32.0,28.4,87,30.33,-9999.0,WSW,6.9,-,N/A,,Overcast,250,2013-05-07 19:52:00
2:12 PM,32.0,28.4,87,30.33,-9999.0,WSW,9.2,-,N/A,,Unknown,240,2013-05-07 20:12:00
2:32 PM,32.0,30.2,93,30.33,-9999.0,West,11.5,-,N/A,,Unknown,270,2013-05-07 20:32:00
2:52 PM,32.0,28.4,87,30.32,-9999.0,West,3.5,-,N/A,,Unknown,270,2013-05-07 20:52:00
3:12 PM,30.2,28.4,93,30.32,-9999.0,Calm,Calm,-,N/A,,Overcast,0,2013-05-07 21:12:00
3:32 PM,30.2,28.4,93,30.32,-9999.0,West,9.2,-,N/A,,Overcast,260,2013-05-07 21:32:00
3:52 PM,30.2,28.4,93,30.32,-9999.0,Calm,Calm,-,N/A,Thunderstorm,Thunderstorm,0,2013-05-07 21:52:00
4:12 PM,30.2,28.4,93,30.32,-9999.0,Calm,Calm,-,N/A,,Overcast,0,2013-05-07 22:12:00
4:32 PM,32.0,30.2,93,30.32,-9999.0,West,11.5,16.1,N/A,,Unknown,260,2013-05-07 22:32:00
4:52 PM,32.0,30.2,93,30.32,-9999.0,WSW,6.9,-,N/A,,Unknown,250,2013-05-07 22:52:00
5:12 PM,32.0,32.0,100,30.32,-9999.0,West,6.9,-,N/A,,Overcast,270,2013-05-07 23:12:00
5:52 PM,32.0,30.2,93,30.32,-9999.0,West,4.6,-,N/A,,Unknown,270,2013-05-07 23:52:00
6:12 PM,32.0,30.2,93,30.32,-9999.0,Calm,Calm,-,N/A,,Unknown,0,2013-05-08 00:12:00
6:32 PM,32.0,30.2,93,30.32,-9999.0,Calm,Calm,-,N/A,Thunderstorm,Thunderstorm,0,2013-05-08 00:32:00
6:52 PM,32.0,30.2,93,30.32,-9999.0,West,6.9,-,N/A,Thunderstorm,Thunderstorm,270,2013-05-08 00:52:00
7:12 PM,32.0,30.2,93,30.32,-9999.0,West,5.8,-,N/A,Thunderstorm,Thunderstorm,270,2013-05-08 01:12:00
7:32 PM,32.0,28.4,87,30.32,-9999.0,WSW,10.4,-,N/A,,Unknown,250,2013-05-08 01:32:00
7:52 PM,32.0,28.4,87,30.32,-9999.0,West,8.1,-,N/A,,Unknown,270,2013-05-08 01:52:00
8:12 PM,32.0,28.4,87,30.33,-9999.0,West,4.6,-,N/A,,Unknown,260,2013-05-08 02:12:00
8:32 PM,32.0,26.6,80,30.33,-9999.0,Calm,Calm,-,N/A,,Clear,0,2013-05-08 02:32:00
8:52 PM,30.2,26.6,86,30.33,-9999.0,West,6.9,-,N/A,,Unknown,270,2013-05-08 02:52:00
9:12 PM,30.2,26.6,86,30.33,-9999.0,West,6.9,-,N/A,,Unknown,270,2013-05-08 03:12:00
9:32 PM,30.2,26.6,86,30.33,-9999.0,West,8.1,-,N/A,,Unknown,270,2013-05-08 03:32:00
9:52 PM,30.2,26.6,86,30.33,-9999.0,West,9.2,-,N/A,,Unknown,270,2013-05-08 03:52:00
10:12 PM,30.2,26.6,86,30.33,-9999.0,Calm,Calm,-,N/A,,Unknown,0,2013-05-08 04:12:00
10:32 PM,30.2,26.6,86,30.33,-9999.0,Calm,Calm,-,N/A,,Unknown,0,2013-05-08 04:32:00
10:52 PM,30.2,24.8,80,30.33,-9999.0,West,5.8,-,N/A,,Clear,260,2013-05-08 04:52:00
11:12 PM,30.2,24.8,80,30.33,-9999.0,West,4.6,-,N/A,,Clear,270,2013-05-08 05:12:00
11:32 PM,30.2,23.0,75,30.33,-9999.0,WSW,4.6,-,N/A,,Clear,240,2013-05-08 05:32:00
11:52 PM,32.0,21.2,64,30.33,-9999.0,SSW,3.5,-,N/A,,Clear,210,2013-05-08 05:52:00